Simultaneous Nadir Overpasses (SNOs) Predictions

Prediction of SNOs near equator between AQUA and NPP Satellite Orbit:

Table of predicted SNOs near equator for the next 14.0 days since TLE Epoch: 2/22/2014
Index Date (AQUA) Time (AQUA) AQUA Lat,Lon Date (NPP) Time (NPP) NPP Lat,Lon Distance(km) Time Diff (sec)
1 02/22/2014 14:54:19 -29.99, 155.68 02/22/2014 14:45:14 -30.01, 155.70 2.88 545
2 02/22/2014 15:37:14 6.15, -31.18 02/22/2014 15:29:16 6.15, -31.17 1.10 478
3 02/22/2014 16:23:24 5.46, 138.96 02/22/2014 16:16:38 5.52, 138.79 19.57 406
4 02/22/2014 17:11:38 -10.10, -52.42 02/22/2014 17:06:08 -10.19, -52.85 48.34 330
5 02/22/2014 17:59:46 14.59, 116.22 02/22/2014 17:55:31 14.74, 115.53 75.90 255
6 02/25/2014 06:21:23 29.94, 103.93 02/25/2014 06:11:30 30.00, 104.15 22.25 593
7 02/25/2014 07:09:18 -24.68, -87.09 02/25/2014 07:00:40 -24.68, -87.10 1.41 518
8 02/25/2014 07:51:23 -2.22, 86.50 02/25/2014 07:43:51 -2.22, 86.49 0.84 452
9 02/25/2014 08:39:22 7.25,-104.77 02/25/2014 08:33:05 7.30,-105.03 29.49 377
10 02/25/2014 09:27:36 -11.88, 63.86 02/25/2014 09:22:35 -11.97, 63.33 58.02 301
11 02/25/2014 10:15:44 16.37,-127.49 02/25/2014 10:11:58 16.52,-128.27 84.89 226
12 02/27/2014 22:37:49 29.97,-140.18 02/27/2014 22:28:26 29.99,-140.07 11.11 563
13 02/27/2014 23:23:00 -14.83, 31.10 02/27/2014 23:14:48 -14.83, 31.09 0.23 492
14 02/28/2014 00:07:11 -4.49,-157.12 02/28/2014 00:00:08 -4.52,-157.21 10.80 423
15 02/28/2014 00:55:18 9.03, 11.51 02/28/2014 00:49:31 9.08, 11.15 39.91 347
16 02/28/2014 01:43:33 -13.61,-179.87 02/28/2014 01:39:01 -13.74, 179.52 67.75 272
17 02/28/2014 02:31:41 18.09, -11.20 02/28/2014 02:28:24 18.29, -12.06 94.01 197
18 03/02/2014 14:04:44 -29.95, 168.10 03/02/2014 13:54:44 -30.55, 168.25 68.52 600
19 03/02/2014 14:54:10 29.69, -24.21 03/02/2014 14:45:18 29.69, -24.21 0.10 532
20 03/02/2014 15:36:45 -5.13, 149.11 03/02/2014 15:29:00 -5.13, 149.10 0.76 465
21 03/02/2014 16:23:06 -6.34, -40.83 03/02/2014 16:16:34 -6.35, -41.02 21.68 392
22 03/02/2014 17:11:13 10.88, 127.81 03/02/2014 17:05:56 10.96, 127.36 50.16 317
23 03/02/2014 17:59:28 -15.45, -63.55 03/02/2014 17:55:27 -15.57, -64.27 77.65 241
24 03/05/2014 06:21:09 -29.97, -76.00 03/05/2014 06:11:32 -30.02, -75.82 18.66 577
25 03/05/2014 07:08:02 20.50, 93.95 03/05/2014 06:59:38 20.50, 93.95 0.56 504
26 03/05/2014 07:50:45 3.61, -93.13 03/05/2014 07:43:28 3.62, -93.15 3.37 437
27 03/05/2014 08:38:59 -8.25, 75.49 03/05/2014 08:32:58 -8.29, 75.20 32.47 361
28 03/05/2014 09:27:07 12.73,-115.88 03/05/2014 09:22:21 12.84,-116.42 60.69 286
29 03/05/2014 10:15:21 -17.35, 52.78 03/05/2014 10:11:51 -17.50, 51.97 87.30 210
30 03/07/2014 22:37:33 -29.99, 39.90 03/07/2014 22:28:28 -29.97, 39.97 7.22 545
31 03/07/2014 23:21:55 11.41,-148.10 03/07/2014 23:14:00 11.41,-148.11 1.07 475
32 03/08/2014 00:06:37 5.52, 23.19 03/07/2014 23:59:52 5.55, 23.06 14.66 405
33 03/08/2014 00:54:51 -10.15,-168.19 03/08/2014 00:49:22 -10.21,-168.58 43.61 329
34 03/08/2014 01:42:58 14.69, 0.47 03/08/2014 01:38:44 14.83, -0.18 71.15 254
35 03/08/2014 02:31:13 -19.26, 169.12 03/08/2014 02:28:15 -19.42, 168.21 97.01 178




NCC Satellite Simultaneous Nadir Overpasses (SNOs) Prediction Service
